This demonstration page uses our WeatherBlox Daily Observations layout. Learn more.

Left ArrowRight Arrow

Hourly Observations for December 24, 2019

Temp ( °F °C ) Dew Point ( °F °C ) Humidity (%) Winds ( mph kmh ) Pressure ( in mb ) Visibility ( mi km ) Precip ( " mm )
12:52 am 00:52 Cloudy 43 6.1 37 2.8 80 80 SSE 15 24 29.89 1012 10 16 0.00 0.00
1:52 am 01:52 Cloudy 41 5 36 2.2 82 82 SSE 13 20 29.88 1012 10 16 0.00 0.00
2:52 am 02:52 Cloudy 41 5 35 1.7 79 79 SSE 10 17 29.87 1012 10 16 0.00 0.00
3:52 am 03:52 Cloudy 38 3.3 34 1.1 86 86 SSE 9 15 29.86 1011 10 16 0.00 0.00
4:52 am 04:52 Cloudy 36 2.2 33 0.6 89 89 SSE 9 15 29.86 1011 10 16 0.00 0.00
5:52 am 05:52 Cloudy 35 1.7 33 0.6 93 93 SSE 7 11 29.86 1011 10 16 0.00 0.00
6:52 am 06:52 Cloudy 36 2.2 33 0.6 89 89 SE 10 17 29.86 1011 10 16 0.00 0.00
7:52 am 07:52 Cloudy 34 1.1 32 0 92 92 SSE 7 11 29.87 1011 10 16 0.00 0.00
8:52 am 08:52 Cloudy 37 2.8 33 0.6 86 86 S 6 9 29.87 1012 10 16 0.00 0.00
9:52 am 09:52 Cloudy 39 3.9 34 1.1 82 82 SSE 8 13 29.88 1012 10 16 0.00 0.00
10:52 am 10:52 Cloudy 43 6.1 34 1.1 71 71 SSE 7 11 29.87 1011 10 16 0.00 0.00
11:52 am 11:52 Cloudy 46 7.8 35 1.7 66 66 S 9 15 29.84 1010 10 16 0.00 0.00
12:52 pm 12:52 Cloudy 48 8.9 35 1.7 61 61 SSE 6 9 29.80 1009 10 16 0.00 0.00
1:52 pm 13:52 Cloudy 49 9.4 35 1.7 59 59 SSE 6 9 29.79 1009 10 16 0.00 0.00
2:52 pm 14:52 Cloudy 49 9.4 36 2.2 61 61 SE 8 13 29.78 1008 10 16 0.00 0.00
3:52 pm 15:52 Cloudy 48 8.9 37 2.8 66 66 SE 6 9 29.77 1008 10 16 0.00 0.00
4:52 pm 16:52 Cloudy 44 6.7 35 1.7 71 71 SE 8 13 29.77 1008 10 16 0.00 0.00
5:52 pm 17:52 Cloudy 40 4.4 34 1.1 79 79 NNE 5 7 29.77 1008 10 16 0.00 0.00
6:52 pm 18:52 Cloudy 36 2.2 32 0 86 86 NNW 7 11 29.77 1008 10 16 0.00 0.00
7:52 pm 19:52 Cloudy 37 2.8 33 0.6 86 86 N 3 6 29.77 1008 10 16 0.00 0.00
8:52 pm 20:52 Cloudy 34 1.1 32 0 92 92 N 7 11 29.75 1008 10 16 0.00 0.00
9:52 pm 21:52 Cloudy 36 2.2 32 0 86 86 N 9 15 29.75 1007 10 16 0.00 0.00
10:52 pm 22:52 Cloudy 34 1.1 31 -0.6 89 89 N 7 11 29.72 1007 10 16 0.00 0.00
11:52 pm 23:52 Cloudy 33 0.6 31 -0.6 92 92 N 5 7 29.71 1006 10 16 0.00 0.00

Powered by AerisWeather